This is the latest recevied weather packets stored in our database for station/object CE4ERM-13. If no packets are shown the sender has not sent any weather packets the latest 10 day(s).
| Time | Temp. | Humidity | Pressure | Rain* | Wind** | Luminosity | Snow |
|---|---|---|---|---|---|---|---|
| 1777995973 | 21.67° C | 34% | 1015 hPa | - | - | - | - |
| 1777994313 | 28.33° C | 25% | 1014.8 hPa | - | - | - | - |
| 1777994172 | 21.11° C | 36% | 1016.8 hPa | - | - | - | - |
| 1777993572 | 20.56° C | 36% | 1014.5 hPa | - | - | - | - |
| 1777992972 | 20.56° C | 35% | 1019 hPa | - | - | - | - |
| 1777992372 | 20° C | 35% | 1014.6 hPa | - | - | - | - |
| 1777991911 | 26.67° C | 25% | 1015.1 hPa | - | - | - | - |
| 1777991772 | 20° C | 36% | 1015.5 hPa | - | - | - | - |
| 1777990572 | 19.44° C | 37% | 1016.8 hPa | - | - | - | - |
| 1777989978 | 19.44° C | 36% | 1032.1 hPa | - | - | - | - |
| 1777989508 | 25° C | 27% | 1015.1 hPa | - | - | - | - |
| 1777989371 | 18.89° C | 38% | 1016.5 hPa | - | - | - | - |
| 1777988771 | 18.89° C | 39% | 1015.1 hPa | - | - | - | - |
| 1777988307 | 23.89° C | 31% | 1015.6 hPa | - | - | - | - |
| 1777987706 | 23.33° C | 31% | 1015 hPa | - | - | - | - |
| 1777986505 | 22.22° C | 35% | 1017 hPa | - | - | - | - |
| 1777985905 | 22.22° C | 36% | 1015 hPa | - | - | - | - |
| 1777985490 | 18.89° C | 41% | 1016.6 hPa | - | - | - | - |
| 1777985305 | 22.22° C | 35% | 1015.7 hPa | - | - | - | - |
| 1777984889 | 18.89° C | 42% | 1013.9 hPa | - | - | - | - |
| 1777984704 | 21.67° C | 37% | 1016.5 hPa | - | - | - | - |
| 1777984296 | 18.89° C | 42% | 1016.2 hPa | - | - | - | - |
| 1777984103 | 22.22° C | 36% | 1016.6 hPa | - | - | - | - |
| 1777983689 | 18.89° C | 42% | 1015.5 hPa | - | - | - | - |
| 1777983088 | 18.89° C | 43% | 1019.7 hPa | - | - | - | - |
* Rain since midnight (hover to see other rain measurements)
** Current wind speed in m/s (hover to see current wind gust speed)